Location: Street
(51.1247°N, 2.7429°W)
Time: 10:19:39
(UTC+01:00)

PCSat - Pass Details

Date: 28 March 2023
Orbit: 783 x 794 km, 67.1° (Epoch: 29 May)

Event Time Altitude Azimuth Distance (km) Brightness Sun altitude
Rises 22:42:17 0° 315° (NW) 3,298 14.1 -26.6°
Reaches altitude 10° 22:45:34 10° 335° (NNW) 2,369 12.9 -27.0°
Maximum altitude 22:49:08 17° 16° (NNE) 1,901 11.8 -27.3°
Enters shadow 22:51:56 12° 51° (NE) 2,200 11.8 -27.6°
